Terug naar catalogus

SL-14 R/B

ActiefPO
NORAD 22188·ROCKET BODY·🇷🇺 Russia

Gelanceerd Oct 20, 1992 vanaf Plesetsk Cosmodrome

Loading…

Volgende Passages (komende 24 uur)

TLE

VersSource: Space-Track

Epoch: Sep 14, 2026, 07:17 UTC

1 22188U 92068G   26257.30363093  .00000006  00000-0 -25333-4 0  9992
2 22188  82.5992  39.1943 0044319 281.0533  93.0519 12.54920279552785

Volg SL-14 R/B in realtime met AllMySat

Download on the App Store